INTELSAT 902 (IS-902)

Last updated on Thu Nov 21 2024 00:02:40 GMT+0000 (Coordinated Universal Time)

1 26900U 01039A 24325.28533068 -.00000281 00000+0 00000+0 0 9991 2 26900 4.6590 78.7548 0005124 172.2076 221.4721 1.00271546 84949
UTC large
Height (km)
Speed (km/s)
/
Latitude / Longitude
Inclination (degrees)
Orbital Period (minutes)
Azimuth
Elevation
Range (km)
Doppler Factor

Next 0 passes for location: London (51.5072 / 0.1276)

Sorry there are no passes over London.